Location: Wanzleben
(52.0609°N, 11.4408°E)
Time: 03:38:38
(UTC+00:00)

CZ-2C R/B - Pass Details

Date: 18 September 2020
Orbit: 640 x 704 km, 98.4° (Epoch: 22 October)

Event Time Altitude Azimuth Distance (km) Brightness Sun altitude
Rises 19:57:39 0° 13° (NNE) 2,962 7.3 -23.2°
Reaches altitude 10° 19:59:51 10° 13° (NNE) 2,051 6.5 -23.5°
Maximum altitude 20:04:19 78° 288° (WNW) 669 3.7 -24.0°
Enters shadow 20:05:32 48° 212° (SSW) 854 4.1 -24.2°
